Oakland, MD

11:08 AM EST on January 17, 2018 (GMT -0500)
Oakland

Weather History for K2G4 - March, 2013

Change the Weather History Date:

Thursday, March 21, 2013

  Actual Average (KMGW) Record (KMGW)
Temperature  
Mean Temperature 16 °F -  
Max Temperature 21 °F 54 °F 83 °F (1948)
Min Temperature 12 °F 31 °F 7 °F (1965)
Degree Days  
Heating Degree Days 48    
Moisture  
Dew Point 12 °F    
Average Humidity 81    
Maximum Humidity 100    
Minimum Humidity 58    
Precipitation  
Precipitation 0.00 in - - ()
Sea Level Pressure  
Sea Level Pressure 29.71 in    
Wind  
Wind Speed 9 mph (WNW)    
Max Wind Speed 15 mph    
Max Gust Speed 26 mph    
Visibility 5 miles    
Events Fog    
Averages and records for this station are not official NWS values.
T = Trace of Precipitation, MM = Missing Value Source: NWS Daily Summary

Daily Weather History Graph

Daily Weather History Graph

Search for Another Location

Airport or City:

Trip Planner

Search our weather history database for the weather conditions in past years. The results will help you decide how hot, cold, wet, or windy it might be!

Date:

Astronomy

Mar. 21, 2013 Rise Set
Actual Time 7:18 AM EDT 7:30 PM EDT
Civil Twilight 6:51 AM EDT 7:57 PM EDT
Nautical Twilight 6:20 AM EDT 8:29 PM EDT
Astronomical Twilight 5:48 AM EDT 9:01 PM EDT
Moon 1:59 PM EDT (3/21) 3:38 AM EDT (3/21)
Length of Visible Light 13h 05m
Length of Day
12h 11m
Waxing Gibbous, 68% of the Moon is Illuminated
Mar 21
Waxing Gibbous
Mar 27
Full
Apr 3
Last Quarter
Apr 10
New
Apr 18
First Quarter

Hourly Weather History & Observations

Time (EDT) Temp. Windchill Dew Point Humidity Pressure Visibility Wind Dir Wind Speed Gust Speed Precip Events Conditions
12:05 AM 21.2 °F 13.6 °F 21.2 °F 100% 29.75 in 1.5 mi WNW 5.8 mph - N/A   Scattered Clouds
12:25 AM 19.4 °F 11.5 °F 19.4 °F 100% 29.74 in 3.0 mi WNW 5.8 mph - N/A   Mist
12:45 AM 19.4 °F 9.5 °F 19.4 °F 100% 29.74 in 1.8 mi NW 8.1 mph - N/A   Mostly Cloudy
1:05 AM 19.4 °F 12.8 °F 19.4 °F 100% 29.74 in 1.5 mi WNW 4.6 mph - N/A   Overcast
1:25 AM 19.4 °F 14.3 °F 19.4 °F 100% 29.73 in 1.5 mi NW 3.5 mph - N/A   Overcast
1:45 AM 19.4 °F 11.5 °F 19.4 °F 100% 29.73 in 1.2 mi NW 5.8 mph - N/A   Overcast
2:05 AM 17.6 °F 9.3 °F 17.6 °F 100% 29.73 in 1.8 mi West 5.8 mph - N/A   Overcast
2:25 AM 17.6 °F 12.3 °F 17.6 °F 100% 29.72 in 1.5 mi WNW 3.5 mph - N/A   Overcast
2:45 AM 17.6 °F 8.2 °F 17.6 °F 100% 29.71 in 1.5 mi WNW 6.9 mph - N/A   Overcast
3:05 AM 17.6 °F 9.3 °F 17.6 °F 100% 29.71 in 2.5 mi WNW 5.8 mph - N/A   Overcast
3:25 AM 17.6 °F 10.7 °F 17.6 °F 100% 29.70 in 3.0 mi WNW 4.6 mph - N/A   Overcast
3:45 AM 17.6 °F 7.3 °F 17.6 °F 100% 29.69 in 1.2 mi West 8.1 mph - N/A   Overcast
4:05 AM 17.6 °F 5.7 °F 17.6 °F 100% 29.69 in 1.5 mi WNW 10.4 mph - N/A   Overcast
4:25 AM 17.6 °F 5.7 °F 17.6 °F 100% 29.68 in 2.5 mi West 10.4 mph - N/A   Overcast
5:05 AM 15.8 °F 2.7 °F 15.8 °F 100% 29.67 in 7.0 mi WNW 11.5 mph 17.3 mph N/A   Overcast
5:25 AM 15.8 °F 4.2 °F 15.8 °F 100% 29.67 in 10.0 mi WNW 9.2 mph 18.4 mph N/A   Overcast
5:45 AM 15.8 °F 2.1 °F 14.0 °F 93% 29.67 in 10.0 mi West 12.7 mph 16.1 mph N/A   Overcast
6:05 AM 14.0 °F 6.5 °F 14.0 °F 100% 29.67 in 1.8 mi WNW 4.6 mph - N/A   Overcast
6:25 AM 14.0 °F 2.9 °F 14.0 °F 100% 29.67 in 1.0 mi WNW 8.1 mph - N/A   Overcast
7:05 AM 14.0 °F 2.9 °F 14.0 °F 100% 29.68 in 2.0 mi WNW 8.1 mph 17.3 mph N/A   Overcast
7:25 AM 14.0 °F 2.9 °F 14.0 °F 100% 29.68 in 5.0 mi WNW 8.1 mph - N/A   Overcast
7:45 AM 14.0 °F 1.2 °F 14.0 °F 100% 29.68 in 2.0 mi West 10.4 mph - N/A   Overcast
8:05 AM 14.0 °F 1.2 °F 14.0 °F 100% 29.67 in 1.5 mi West 10.4 mph 18.4 mph N/A   Overcast
8:25 AM 12.2 °F -1.0 °F 12.2 °F 100% 29.67 in 1.5 mi West 10.4 mph - N/A   Overcast
8:45 AM 12.2 °F -2.5 °F 12.2 °F 100% 29.68 in 4.0 mi West 12.7 mph 17.3 mph N/A   Overcast
9:05 AM 14.0 °F 1.2 °F 10.4 °F 86% 29.67 in 3.0 mi West 10.4 mph 17.3 mph N/A   Overcast
9:25 AM 14.0 °F 1.2 °F 10.4 °F 86% 29.67 in 10.0 mi West 10.4 mph 17.3 mph N/A   Overcast
10:05 AM 14.0 °F 1.2 °F 12.2 °F 93% 29.69 in 0.2 mi WNW 10.4 mph - N/A Fog Light Freezing Fog
10:25 AM 12.2 °F -0.2 °F 8.6 °F 85% 29.69 in 0.8 mi WNW 9.2 mph 19.6 mph N/A   Mostly Cloudy
10:45 AM 14.0 °F 1.2 °F 10.4 °F 86% 29.69 in 1.0 mi West 10.4 mph 16.1 mph N/A   Overcast
11:05 AM 14.0 °F 2.0 °F 8.6 °F 79% 29.69 in 10.0 mi West 9.2 mph - N/A   Mostly Cloudy
11:25 AM 14.0 °F 3.9 °F 6.8 °F 73% 29.70 in 10.0 mi West 6.9 mph - N/A   Overcast
11:45 AM 15.8 °F 2.7 °F 6.8 °F 68% 29.69 in 10.0 mi West 11.5 mph 20.7 mph N/A   Overcast
12:05 PM 15.8 °F 2.1 °F 6.8 °F 68% 29.68 in 7.0 mi West 12.7 mph 21.9 mph N/A   Overcast
12:25 PM 17.6 °F 5.7 °F 5.0 °F 58% 29.68 in 7.0 mi West 10.4 mph 23.0 mph N/A   Overcast
12:45 PM 17.6 °F 5.7 °F 8.6 °F 68% 29.68 in 4.0 mi WNW 10.4 mph 19.6 mph N/A   Haze
1:05 PM 17.6 °F 3.7 °F 6.8 °F 63% 29.69 in 5.0 mi West 13.8 mph 23.0 mph N/A   Haze
1:25 PM 17.6 °F 5.7 °F 8.6 °F 68% 29.68 in 4.0 mi WNW 10.4 mph 18.4 mph N/A   Haze
1:45 PM 17.6 °F 5.0 °F 8.6 °F 68% 29.69 in 4.0 mi WNW 11.5 mph 19.6 mph N/A   Haze
2:05 PM 17.6 °F 4.3 °F 6.8 °F 63% 29.69 in 7.0 mi WNW 12.7 mph 19.6 mph N/A   Overcast
2:25 PM 17.6 °F 3.2 °F 8.6 °F 68% 29.69 in 5.0 mi WNW 15.0 mph 21.9 mph N/A   Haze
2:45 PM 19.4 °F 6.6 °F 6.8 °F 58% 29.68 in 7.0 mi WNW 12.7 mph 19.6 mph N/A   Overcast
3:05 PM 17.6 °F 5.0 °F 8.6 °F 68% 29.68 in 7.0 mi WNW 11.5 mph 17.3 mph N/A   Overcast
3:25 PM 17.6 °F 4.3 °F 10.4 °F 73% 29.68 in 2.5 mi West 12.7 mph 18.4 mph N/A   Haze
3:45 PM 19.4 °F 6.0 °F 8.6 °F 63% 29.68 in 4.0 mi West 13.8 mph 23.0 mph N/A   Haze
4:05 PM 19.4 °F 6.6 °F 8.6 °F 63% 29.69 in 4.0 mi West 12.7 mph 26.5 mph N/A   Haze
4:25 PM 19.4 °F 7.2 °F 8.6 °F 63% 29.70 in 7.0 mi WNW 11.5 mph 19.6 mph N/A   Overcast
4:45 PM 19.4 °F 6.0 °F 6.8 °F 58% 29.70 in 5.0 mi West 13.8 mph 21.9 mph N/A   Haze
5:05 PM 17.6 °F 4.3 °F 6.8 °F 63% 29.70 in 7.0 mi WNW 12.7 mph 20.7 mph N/A   Overcast
5:25 PM 19.4 °F 7.9 °F 8.6 °F 63% 29.71 in 5.0 mi WNW 10.4 mph 19.6 mph N/A   Haze
5:45 PM 19.4 °F 9.5 °F 6.8 °F 58% 29.71 in 7.0 mi WNW 8.1 mph 18.4 mph N/A   Overcast
6:05 PM 17.6 °F 3.7 °F 6.8 °F 63% 29.72 in 10.0 mi WNW 13.8 mph 21.9 mph N/A   Overcast
6:25 PM 17.6 °F 5.0 °F 5.0 °F 58% 29.72 in 7.0 mi West 11.5 mph 25.3 mph N/A   Mostly Cloudy
7:05 PM 17.6 °F 5.0 °F 5.0 °F 58% 29.73 in 10.0 mi WNW 11.5 mph 23.0 mph N/A   Scattered Clouds
7:25 PM 17.6 °F 7.3 °F 5.0 °F 58% 29.74 in 10.0 mi West 8.1 mph 18.4 mph N/A   Mostly Cloudy
7:45 PM 17.6 °F 7.3 °F 6.8 °F 63% 29.74 in 10.0 mi West 8.1 mph - N/A   Overcast
8:05 PM 17.6 °F 5.7 °F 6.8 °F 63% 29.75 in 10.0 mi West 10.4 mph 18.4 mph N/A   Overcast
8:25 PM 17.6 °F 4.3 °F 8.6 °F 68% 29.75 in 10.0 mi West 12.7 mph 19.6 mph N/A   Overcast
8:45 PM 17.6 °F 4.3 °F 10.4 °F 73% 29.76 in 10.0 mi West 12.7 mph 19.6 mph N/A   Overcast
9:05 PM 17.6 °F 5.7 °F 10.4 °F 73% 29.76 in 10.0 mi West 10.4 mph 19.6 mph N/A   Overcast
9:25 PM 17.6 °F 5.0 °F 10.4 °F 73% 29.76 in 10.0 mi West 11.5 mph 17.3 mph N/A   Overcast
9:45 PM 17.6 °F 5.7 °F 10.4 °F 73% 29.76 in 10.0 mi West 10.4 mph 19.6 mph N/A   Overcast
10:05 PM 17.6 °F 7.3 °F 10.4 °F 73% 29.76 in 10.0 mi West 8.1 mph - N/A   Overcast
10:25 PM 17.6 °F 3.7 °F 10.4 °F 73% 29.76 in 10.0 mi WSW 13.8 mph 21.9 mph N/A   Overcast
11:05 PM 17.6 °F 4.3 °F 12.2 °F 79% 29.77 in 10.0 mi West 12.7 mph 20.7 mph N/A   Overcast
11:25 PM 17.6 °F 4.3 °F 12.2 °F 79% 29.77 in 5.0 mi West 12.7 mph 24.2 mph N/A   Haze
11:45 PM 17.6 °F 4.3 °F 12.2 °F 79% 29.77 in 4.0 mi West 12.7 mph 19.6 mph N/A   Haze